Location: Melizzano
(41.1500°N, 14.5000°E)
Time: 09:07:23
(UTC+00:00)

Cosmos 1709 Rocket - Pass Details

Date: 27 September 2021
Orbit: 948 x 1002 km, 82.9° (Epoch: 27 October)

Event Time Altitude Azimuth Distance (km) Brightness Sun altitude
Rises 03:59:07 0° 350° (N) 3,627 7.0 -11.2°
Reaches altitude 10° 04:01:36 10° 349° (N) 2,679 6.3 -10.8°
Maximum altitude 04:07:42 73° 266° (W) 994 3.9 -9.6°
Drops below altitude 10° 04:13:47 10° 182° (S) 2,682 6.2 -8.5°
Sets 04:16:17 0° 181° (S) 3,630 6.9 -8.0°
